Abha Regional Airport

Airport
ICAO code: 
OEAB
IATA Code: 
AHB
Summary
ICAO Region: 
MID
Territory: 
Location: 
Abha, 'Asir,
Serving: 
Khamis Mushayat
Elevation: 
6858 ft
Coordinates: 
Aerial View: 
18° 14' 3.444" N, 42° 39' 27.266" E
Metar
Observation
OEAB 241600Z 20007KT CAVOK 15/07 Q1025 NOSIG
Station
Abha
Date/Time
2022-01-24 16:00:00
Wind direction
200°
Wind speed
07 kts
Lowest cloud amount
clouds and visibility OK
Temperature
15°C
Dew point
7°C
Humidity
58%
QNH
1025 hPa
Weather condition
n/a

Description

Abha Regional Airport is located 20 km east of Abha, Saudi Arabia.

Climatology

Hot Desert Climate (Köppen climate classification BWh) - Hot desert climates are typically found in the subtropics where there is unbroken sunshine for the whole year due to the stable descending air and high pressure, little or no precipitation. Maximum temperatures of 40°C to 45°C are not uncommon, particularly during the warmer months of the year. During colder periods of the year, night-time temperatures can drop to freezing or below due to the exceptional radiation loss under the clear skies. However, very rarely do temperatures drop far below freezing.

Runways

Designator Length Width Surface Rops
13/31 3350 45 ASP Yes/Yes
Airport map: 
Aerial View: 

SKYbrary Partners:

Safety knowledge contributed by: